This is the latest recevied weather packets stored in our database for station/object CA3DPI. If no packets are shown the sender has not sent any weather packets the latest 10 day(s).
| Time | Temp. | Humidity | Pressure | Rain* | Wind** | Luminosity | Snow |
|---|---|---|---|---|---|---|---|
| 1777409712 | 30.56° C | 30% | 1019.1 hPa | - | - | - | - |
| 1777409111 | 32.22° C | 28% | 1019.2 hPa | - | - | - | - |
| 1777408511 | 33.33° C | 26% | 1019.3 hPa | - | - | - | - |
| 1777407911 | 32.78° C | 26% | 1019.3 hPa | - | - | - | - |
| 1777407311 | 33.89° C | 26% | 1019.4 hPa | - | - | - | - |
| 1777406711 | 34.44° C | 24% | 1019.5 hPa | - | - | - | - |
| 1777406110 | 34.44° C | 28% | 1019.5 hPa | - | - | - | - |
| 1777405510 | 34.44° C | 26% | 1019.4 hPa | - | - | - | - |
| 1777404910 | 34.44° C | 26% | 1019.3 hPa | - | - | - | - |
| 1777404310 | 35° C | 31% | 1019.3 hPa | - | - | - | - |
| 1777403710 | 35° C | 24% | 1019.2 hPa | - | - | - | - |
| 1777403110 | 35° C | 20% | 1019.2 hPa | - | - | - | - |
| 1777402509 | 35.56° C | 23% | 1019.3 hPa | - | - | - | - |
| 1777401909 | 35.56° C | 24% | 1019.2 hPa | - | - | - | - |
| 1777401309 | 35° C | 23% | 1019.4 hPa | - | - | - | - |
| 1777400709 | 35° C | 24% | 1019.4 hPa | - | - | - | - |
| 1777400109 | 35° C | 29% | 1019.4 hPa | - | - | - | - |
| 1777399509 | 35° C | 26% | 1019.6 hPa | - | - | - | - |
| 1777398908 | 35° C | 22% | 1019.8 hPa | - | - | - | - |
| 1777398308 | 35° C | 23% | 1019.9 hPa | - | - | - | - |
| 1777397708 | 35° C | 28% | 1020 hPa | - | - | - | - |
| 1777397108 | 33.89° C | 25% | 1020.2 hPa | - | - | - | - |
| 1777396507 | 33.89° C | 26% | 1020.5 hPa | - | - | - | - |
| 1777395907 | 34.44° C | 27% | 1020.6 hPa | - | - | - | - |
| 1777395307 | 34.44° C | 27% | 1020.8 hPa | - | - | - | - |
* Rain since midnight (hover to see other rain measurements)
** Current wind speed in m/s (hover to see current wind gust speed)